This is the latest recevied weather packets stored in our database for station/object KD9CCP. If no packets are shown the sender has not sent any weather packets the latest 10 day(s).
| Time | Temp. | Humidity | Pressure | Rain* | Wind** | Luminosity | Snow |
|---|---|---|---|---|---|---|---|
| 1778083111 | 1.67° C | 70% | 1015.3 hPa | 0 mm | - | 55 W/m² | - |
| 1778082807 | 1.11° C | 71% | 1015.4 hPa | 0 mm | - | 42 W/m² | - |
| 1778081685 | 1.67° C | 72% | 1015.3 hPa | 0 mm | - | 41 W/m² | - |
| 1778081383 | 1.67° C | 71% | 1015 hPa | 0 mm | - | 56 W/m² | - |
| 1778081079 | 1.67° C | 78% | 1015.2 hPa | 0 mm | - | 58 W/m² | - |
| 1778080778 | 1.11° C | 76% | 1014.9 hPa | 0 mm | - | 59 W/m² | - |
| 1778080475 | 1.11° C | 77% | 1014.9 hPa | 0 mm | - | 45 W/m² | - |
| 1778080172 | 0.56° C | 75% | 1014.8 hPa | 0 mm | - | 37 W/m² | - |
| 1778079868 | 0.56° C | 76% | 1014.8 hPa | 0 mm | - | 32 W/m² | - |
| 1778079565 | 0.56° C | 76% | 1014.9 hPa | 0 mm | - | 29 W/m² | - |
| 1778079261 | 0.56° C | 76% | 1014.8 hPa | 0 mm | - | 25 W/m² | - |
| 1778078959 | 0.56° C | 77% | 1014.7 hPa | 0 mm | - | 21 W/m² | - |
| 1778078655 | 0.56° C | 76% | 1014.7 hPa | 0 mm | - | 17 W/m² | - |
| 1778078354 | 0.56° C | 76% | 1014.8 hPa | 0 mm | - | 19 W/m² | - |
| 1778078050 | 1.11° C | 73% | 1014.8 hPa | 0 mm | - | 17 W/m² | - |
| 1778077749 | 1.67° C | 72% | 1014.6 hPa | 0 mm | - | 17 W/m² | - |
| 1778077447 | 1.67° C | 71% | 1014.8 hPa | 0 mm | - | 19 W/m² | - |
| 1778077144 | 1.67° C | 71% | 1014.8 hPa | 0 mm | - | 20 W/m² | - |
| 1778076842 | 1.67° C | 74% | 1014.6 hPa | 0 mm | - | 25 W/m² | - |
| 1778076540 | 1.67° C | 76% | 1014.5 hPa | 0 mm | - | 31 W/m² | - |
| 1778076237 | 1.67° C | 76% | 1014.4 hPa | 0 mm | - | 35 W/m² | - |
| 1778075934 | 1.67° C | 75% | 1014.4 hPa | 0 mm | - | 30 W/m² | - |
| 1778075631 | 1.67° C | 73% | 1014.3 hPa | 0 mm | - | 28 W/m² | - |
| 1778075327 | 1.67° C | 69% | 1014.3 hPa | 0 mm | - | 26 W/m² | - |
| 1778075023 | 1.67° C | 73% | 1014.4 hPa | 0 mm | - | 26 W/m² | - |
* Rain latest hour (hover to see other rain measurements)
** Current wind speed in m/s (hover to see current wind gust speed)